Lexington Weather

Lexington, Massachusetts, USA

59°F
10/23/2020 5:53pm 
  • Lexington Conditions: Overcast
  • Temperature: 59.2°F / 15.1°CColder 2.3°F than last hour.
  • Dew Point: 53.4°FDecreased 1.8°Fsince last hour.
  • Relative Humidity: 81%Increased 1.0% since last hour.
  • Wind: Wind from SSE SSE Calm, 10-min avg: 1 mph, gust: 4 mph
  • Barometer: 30.08 inFalling 0.02  inHg/hr Falling Slowly
  • Visibility: 10 miles
  • Rain Today: 0.00 in
  •   

Regional Weather Roundup
for Boston / Norton, MA

        
000
ASUS41 KBOX 172105
RWRBOX

REGIONAL WEATHER ROUNDUP
NATIONAL WEATHER SERVICE BOSTON/NORTON MA
500 PM EDT SAT OCT 17 2020

NOTE:  "FAIR" INDICATES FEW OR NO CLOUDS BELOW 12,000 FEET WITH NO 
SIGNIFICANT WEATHER AND/OR OBSTRUCTIONS TO VISIBILITY.

MAZALL-172200-
EASTERN MASSACHUSETTS
  
CITY           SKY/WX    TMP DP  RH WIND       PRES   REMARKS
BOSTON         CLEAR     56  29  35 NW15      30.26R                  
BEVERLY        CLEAR     57  33  40 NW6       30.25R                  
LAWRENCE       CLEAR     56  31  38 W9G18     30.28R                  
BEDFORD        CLEAR     57  30  35 NW10      30.26R                  
BLUE HILL        N/A     53  31  42 NW15G23   30.23F                  
NORWOOD        CLEAR     59  30  33 NW8       30.25S                  
MARSHFIELD     CLEAR     59  34  38 NW5       30.26R                  
PLYMOUTH       CLEAR     57  31  37 NW10      30.25R                  
TAUNTON        CLEAR     59  31  34 NW8       30.25R                  
NEW BEDFORD    CLEAR     59  32  36 N7        30.25R                  
$$

MAZALL-172200-
CAPE COD AND THE ISLANDS
  
CITY           SKY/WX    TMP DP  RH WIND       PRES   REMARKS
FALMOUTH       CLEAR     57  32  38 N12       30.25R                  
HYANNIS        CLEAR     57  36  45 N10       30.24R                  
CHATHAM        CLEAR     56  37  49 VRB6      30.26R                  
PROVINCETOWN   CLEAR     56  39  53 NW17      30.26R                  
NANTUCKET      CLEAR     59  38  45 NW14      30.25R                  
MARTHAS VNYRD  CLEAR     59  33  37 N12       30.25R                  
$$
 
MAZALL-172200-
CENTRAL AND WESTERN MASSACHUSETTS
  
CITY           SKY/WX    TMP DP  RH WIND       PRES   REMARKS
WORCESTER      SUNNY     54  29  38 NW10      30.25R                  
FITCHBURG      CLEAR     57  30  35 NW12      30.26S                  
ORANGE         SUNNY     56  28  34 W5        30.27S                  
SPRINGFIELD    MOSUNNY   58  26  29 NW9       30.26R                  
WESTFIELD      SUNNY     57  28  33 NW10      30.27R                  
NORTH ADAMS    SUNNY     55  30  38 W14       30.27S                  
PITTSFIELD     SUNNY     53  26  35 N10G16    30.26S                  
$$
 
RIZALL-172200-
RHODE ISLAND
  
CITY           SKY/WX    TMP DP  RH WIND       PRES   REMARKS
PROVIDENCE     CLEAR     59  32  36 NW9       30.26R                  
NEWPORT        CLEAR     57  32  38 N10       30.25S                  
BLOCK ISLAND   SUNNY     57  31  37 NW7       30.28R                  
SMITHFIELD     CLEAR     55  33  43 NW7         N/A                   
WESTERLY       SUNNY     59  29  31 VRB3      30.27R                  
$$
 
CTZALL-172200-
CONNECTICUT
  
CITY           SKY/WX    TMP DP  RH WIND       PRES   REMARKS
BRADLEY INTL   SUNNY     58  27  30 N8        30.27S                  
HARTFORD       SUNNY     59  24  26 NW9       30.28R                  
BRIDGEPORT     SUNNY     61  26  26 NW10      30.29R                  
DANBURY        SUNNY     57  28  33 W6        30.30R                  
GROTON         SUNNY     59  28  30 NW12      30.27R                  
NEW HAVEN      SUNNY     61  27  27 NW8       30.29R                  
CHESTER        NOT AVBL                                               
MERIDEN        SUNNY     59  25  27 NW10      30.28R                  
WILLIMANTIC    SUNNY     58  27  30 NW7       30.27R                  
OXFORD         SUNNY     56  28  34 NW3       30.29R                  
$$

MEZ002-015-021-024-NHZ003-005-008-011-012-014-VTZ005-008-172200-
NORTHERN NEW ENGLAND
  
CITY           SKY/WX    TMP DP  RH WIND       PRES   REMARKS
PORTLAND ME    CLEAR     53  31  42 NW14      30.24R                  
BANGOR ME      MOCLDY    43  37  79 W10G18    30.16R                  
CONCORD NH     CLEAR     55  28  35 NW8G22    30.26R                  
MANCHESTER NH  CLEAR     57  27  31 NW13      30.24R                  
NASHUA NH      CLEAR     57  28  33 NW13G23   30.27R                  
PORTSMOUTH NH  CLEAR     56  26  32 NW12G20   30.23R                  
JAFFREY NH     CLEAR     53  27  36 VRB5      30.25S                  
KEENE NH       SUNNY     55  27  34 NW5       30.26S                  
BURLINGTON VT  MOCLDY    55  28  35 S5        30.25R                  
MT. WASHINGTON BLWGSNOW  23  23 100 W58G68      N/A  VSB 1/16WCI   0  
$$

NYZ052-076-172200-
EASTERN NEW YORK
  
CITY           SKY/WX    TMP DP  RH WIND       PRES   REMARKS
ALBANY         MOSUNNY   53  29  39 NW14      30.29S                  
NEW YORK CITY  SUNNY     61  28  28 NW13      30.30R                  
$$
 
ANZALL-172200-
MARINE OBSERVATIONS
  
STATION/POSITION TIME  TEMP    WIND        PRES    VSBY  WAVE
                       AIR SEA DIR/SP/G                  HT/PER
                 (UTC) (F)     (DEG/KT/KT) (MB)    (MI)  (FT/S)
BOSTON BUOY      2050   57 57  320/ 14/ 16 1023.7R         3/ 4
BUZZARDS BAY     2000          320/ 18/ 21 1025.0F
NANTUCKET SOUND  2050      62  330/ 16/ 19   N/A           2/ 4
MASS BAY-STELLWA 2004   57 58  300/ 16/ 19 1023.4R  1 7/8  3/ 3
ISLE OF SHOALS   2000   55     300/ 20/ 23 1022.8R
S OF BLOCK IS    2026      63                N/A           3/ 4
$$

......................KEY.........................
  SKY/WX - SKY CONDITION/PRESENT WEATHER
  TMP    - TEMPERATURE IN FAHRENHEIT
  DWPT   - DEWPOINT IN FAHRENHEIT
  RH     - RELATIVE HUMIDITY IN PERCENT
  WIND   - DIRECTION AND SPEED IN MPH
  PRES   - MEAN SEA LEVEL PRESSURE IN INCHES OF HG
  WCI    - WIND CHILL INDEX
  VSB    - VISIBILITY IN MILES
  HX     - HEAT INDEX
  TC     - TEMPERATURE IN CELSIUS
  VRB    - VARIABLE WIND DIRECTION
  N/A    - NOT AVAILABLE
  
      

Other recent Regional Weather Roundups

Fri Oct 23, 5:05pm

Fri Oct 23, 4:04pm

Fri Oct 23, 3:04pm

Fri Oct 23, 2:05pm

Fri Oct 23, 1:04pm

Fri Oct 23, 12:04pm

Fri Oct 23, 11:04am

Fri Oct 23, 10:04am

Fri Oct 23, 9:04am

Fri Oct 23, 8:04am

Fri Oct 23, 7:04am

Fri Oct 23, 6:04am

Fri Oct 23, 5:04am

Fri Oct 23, 4:04am

Fri Oct 23, 3:04am

Fri Oct 23, 2:04am

Fri Oct 23, 1:04am

Fri Oct 23, 12:04am

Thu Oct 22, 11:04pm

Thu Oct 22, 10:04pm

Thu Oct 22, 9:05pm

Thu Oct 22, 8:04pm

Thu Oct 22, 7:05pm

Thu Oct 22, 6:04pm

Thu Oct 22, 5:04pm

Thu Oct 22, 4:05pm

Thu Oct 22, 3:04pm

Thu Oct 22, 2:05pm

Thu Oct 22, 1:04pm

Thu Oct 22, 12:04pm

Thu Oct 22, 11:04am

Thu Oct 22, 10:05am

Thu Oct 22, 9:04am

Thu Oct 22, 8:05am

Thu Oct 22, 7:04am

Thu Oct 22, 6:04am

Thu Oct 22, 5:04am

Thu Oct 22, 4:04am

Thu Oct 22, 3:04am

Thu Oct 22, 2:04am

Thu Oct 22, 1:04am

Thu Oct 22, 12:04am

Wed Oct 21, 11:05pm

Wed Oct 21, 10:04pm

Wed Oct 21, 9:04pm

Wed Oct 21, 8:04pm

Wed Oct 21, 7:04pm

Wed Oct 21, 6:04pm

Wed Oct 21, 5:05pm

Wed Oct 21, 4:04pm

Wed Oct 21, 3:04pm

Wed Oct 21, 2:05pm

Wed Oct 21, 1:04pm

Wed Oct 21, 12:04pm

Wed Oct 21, 11:04am

Wed Oct 21, 10:04am

Wed Oct 21, 9:04am

Wed Oct 21, 8:04am

Wed Oct 21, 7:04am

Wed Oct 21, 6:04am

Wed Oct 21, 5:04am

Wed Oct 21, 4:04am

Wed Oct 21, 3:04am

Wed Oct 21, 2:04am

Wed Oct 21, 1:04am

Wed Oct 21, 12:04am

Tue Oct 20, 11:05pm

Tue Oct 20, 10:04pm

Tue Oct 20, 9:04pm

Tue Oct 20, 8:05pm

Tue Oct 20, 7:04pm

Tue Oct 20, 6:04pm

Tue Oct 20, 5:05pm

Tue Oct 20, 4:04pm

Tue Oct 20, 3:05pm

Tue Oct 20, 2:07pm

Tue Oct 20, 1:04pm

Tue Oct 20, 12:04pm

Tue Oct 20, 11:04am

Tue Oct 20, 10:05am

Tue Oct 20, 9:04am

Tue Oct 20, 8:04am

Tue Oct 20, 7:04am

Tue Oct 20, 6:04am

Tue Oct 20, 5:04am

Tue Oct 20, 4:04am

Tue Oct 20, 3:04am

Tue Oct 20, 2:04am

Tue Oct 20, 1:04am

Tue Oct 20, 12:04am

Mon Oct 19, 11:04pm

Mon Oct 19, 10:04pm

Mon Oct 19, 9:04pm

Mon Oct 19, 8:04pm

Mon Oct 19, 7:04pm

Mon Oct 19, 6:04pm

Mon Oct 19, 5:04pm

Mon Oct 19, 4:04pm

Mon Oct 19, 3:04pm

Mon Oct 19, 2:04pm

Mon Oct 19, 1:05pm

Mon Oct 19, 12:04pm

Mon Oct 19, 11:04am

Mon Oct 19, 10:04am

Mon Oct 19, 9:04am

Mon Oct 19, 8:04am

Mon Oct 19, 7:04am

Mon Oct 19, 6:04am

Mon Oct 19, 5:04am

Mon Oct 19, 4:04am

Mon Oct 19, 3:04am

Mon Oct 19, 2:04am

Mon Oct 19, 1:04am

Mon Oct 19, 12:05am

Sun Oct 18, 11:04pm

Sun Oct 18, 10:04pm

Sun Oct 18, 9:04pm

Sun Oct 18, 8:04pm

Sun Oct 18, 7:05pm

Sun Oct 18, 6:04pm

Sun Oct 18, 5:05pm

Sun Oct 18, 4:05pm

Sun Oct 18, 3:04pm

Sun Oct 18, 2:05pm

Sun Oct 18, 1:04pm

Sun Oct 18, 12:04pm

Sun Oct 18, 11:04am

Sun Oct 18, 10:04am

Sun Oct 18, 9:04am

Sun Oct 18, 8:04am

Sun Oct 18, 7:04am

Sun Oct 18, 6:04am

Sun Oct 18, 5:04am

Sun Oct 18, 4:04am

Sun Oct 18, 3:04am

Sun Oct 18, 2:04am

Sun Oct 18, 1:04am

Sun Oct 18, 12:04am

Sat Oct 17, 11:05pm

Sat Oct 17, 10:04pm

Sat Oct 17, 9:04pm

Sat Oct 17, 8:04pm

Sat Oct 17, 7:04pm

Sat Oct 17, 6:04pm

Sat Oct 17, 4:04pm

Sat Oct 17, 3:04pm

Sat Oct 17, 2:05pm

Sat Oct 17, 1:05pm

Sat Oct 17, 12:04pm

Sat Oct 17, 11:05am

Sat Oct 17, 10:04am

Sat Oct 17, 9:04am

Sat Oct 17, 8:04am

Sat Oct 17, 7:04am

Sat Oct 17, 6:04am

Sat Oct 17, 5:04am

Sat Oct 17, 4:04am

Sat Oct 17, 3:04am

Sat Oct 17, 2:04am

Sat Oct 17, 1:05am

Sat Oct 17, 12:04am

Fri Oct 16, 11:05pm

Fri Oct 16, 10:04pm

Fri Oct 16, 9:05pm

Fri Oct 16, 8:04pm

Fri Oct 16, 7:05pm

Fri Oct 16, 6:04pm

Meta data:

ID: be5e28b9-41c5-4f88-acb4-32e72723981b
Link: https://api.weather.gov/products/be5e28b9-41c5-4f88-acb4-32e72723981b